Simultaneous Nadir Overpasses (SNOs) Predictions

Prediction of SNOs between AQUA and NPP Satellite Orbit:

Table of predicted SNOs for the next 14.0 days since TLE Epoch: 8/15/2016
Index Date (AQUA) Time (AQUA) Lat,Lon (AQUA) SZA (AQUA ) Date (NPP) Time (NPP) Lat,Lon (NPP) SZA (NPP ) Distance(km) Time Diff (sec)
1 08/17/2016 13:16:04 -73.85, 34.47 93.03 08/17/2016 13:15:15 -73.85, 34.45 92.99 0.51 49
2 08/17/2016 14:04:59 75.39,-154.09 85.27 08/17/2016 14:05:27 75.39,-154.08 85.24 0.25 28
3 08/20/2016 05:32:20 -74.42, 151.66 92.84 08/20/2016 05:31:56 -74.42, 151.66 92.82 0.10 24
4 08/20/2016 06:21:17 75.83, -36.92 85.58 08/20/2016 06:22:10 75.84, -36.88 85.52 1.14 53
5 08/22/2016 21:00:50 69.60, 91.25 93.12 08/22/2016 20:59:36 69.69, 90.89 93.22 17.22 74
6 08/22/2016 21:48:36 -75.03, -90.94 92.68 08/22/2016 21:48:37 -75.03, -90.90 92.69 1.10 1
7 08/22/2016 22:34:20 81.81, 140.60 74.79 08/22/2016 22:35:33 81.24, 140.27 74.54 62.71 73
8 08/25/2016 13:15:58 73.89,-145.44 89.44 08/25/2016 13:15:08 73.89,-145.45 89.48 0.27 50
9 08/25/2016 14:05:02 -75.12, 25.18 91.92 08/25/2016 14:05:29 -75.11, 25.10 91.92 2.75 27
10 08/28/2016 05:32:12 74.59, -27.91 89.54 08/28/2016 05:31:47 74.60, -27.85 89.54 2.00 25




NCC Satellite Simultaneous Nadir Overpasses (SNOs) Prediction Service
